Regional Weather Roundup
Issued by NWS

Home | Current Version | Previous Version | Graphics & Text | Print | Product List | Glossary On
Versions: 1 2 3 4 5 6 7 8 9 10 11 12 13 14 15 16 17 18 19 20 21 22 23 24 25 26 27 28 29 30 31 32 33 34 35 36 37 38 39 40 41 42 43 44 45 46 47 48 49 50
000
ASUS45 KBOI 011310
RWRID
WEATHER ROUNDUP FOR IDAHO
NATIONAL WEATHER SERVICE BOISE ID
600 AM MST SUN MAR 01 2015

NOTE: "FAIR" INDICATES FEW OR NO CLOUDS BELOW 12000 FEET
WITH NO SIGNIFICANT WEATHER AND/OR OBSTRUCTIONS TO VISIBILITY

IDZ012-014-011400-
SOUTHWEST IDAHO


CITY           SKY/WX    TMP DP  RH WIND       PRES   REMARKS
BOISE          FLURRIES  31  23  72 SE3       30.15R
CALDWELL       CLOUDY    28  16  59 CALM      30.18R
MOUNTAIN HOME  CLEAR     25  20  83 E14       30.15R WCI  13
$$

IDZ016-017-011400-
SOUTHCENTRAL IDAHO


CITY           SKY/WX    TMP DP  RH WIND       PRES   REMARKS
BURLEY         CLEAR     22   7  52 E8        30.13R WCI  12
JEROME         CLEAR     22   9  57 E17       30.12R WCI   8
TWIN FALLS     CLEAR     27   7  42 E14       30.11R WCI  16
$$

IDZ019>023-011400-
SOUTHEAST IDAHO


CITY           SKY/WX    TMP DP  RH WIND       PRES   REMARKS
IDAHO FALLS    CLEAR     14   4  64 N12       30.15R WCI   0
POCATELLO      CLEAR     17   5  59 NE9       30.14R WCI   6
REXBURG        CLEAR     10   1  67 NE9       30.15R WCI  -3
$$

IDZ006-010-011-018-031-032-011400-
CENTRAL IDAHO MOUNTAINS


CITY           SKY/WX    TMP DP  RH WIND       PRES   REMARKS
MCCALL         CLEAR     16   9  74 CALM      30.08S
HAILEY         CLEAR     23  12  63 NW8       30.11R WCI  14
STANLEY          N/A      1  -5  75 S3        30.12R
SALMON         CLEAR     16   7  67 CALM      30.24R
CHALLIS        CLEAR     14   7  73 S6        30.16S WCI   5
$$

IDZ002-004-006-007-026-011400-
NORTHERN IDAHO


CITY           SKY/WX    TMP DP  RH WIND       PRES   REMARKS
LEWISTON       CLEAR     28  16  60 CALM      30.27R
LOWELL           N/A     24  19  81 NW5       30.33R WCI  18
COEUR D`ALENE  CLEAR     21   9  58 E5        30.23S WCI  15
MULLAN PASS    CLEAR     13  -1  54 S10       30.07F WCI   0
$$



USA.gov is the U.S. government's official web portal to all federal, state and local government web resources and services.